Starlink 32092

operational
NORAD ID: 59700 Int'l Des: 2024-086 Owner: SPXS Country: US Constellation: starlink
LEOCIRCULAR

About Starlink 32092

Description loading...

Live Position

Loading 3D Globe...

Upcoming Passes

Altitude History

Altitude vs Time

uPlot chart will show altitude changes over time

Two-Line Element Set

1 59700U 24086U 25314.57320613 .00003578 00000-0 13946-3 0 9992
2 59700 42.9998 12.7067 0000776 277.1814 82.8949 15.27585891 85898
Epoch: Nov 10, 2025 • Age: 25 hours

Current Status

Altitude 493.2 km
Velocity 7.62 km/s
Sub-Earth Point -36.31°S, 27.59°W
Launch Date May 8, 2024
Age 1.5 years
Type internet

Technical Details

Classification Payload
Mass 730.00 kg
Dry Mass 700.00 kg
Total Mass 730.00 kg
Length 0.30 m
Diameter 4.10 m
Span 29.00 m
Shape Box + pan
Manufacturer SPXS
Bus Type Starlink V2M
Phase Status In Orbit
Owner/State SPXS/US

Large Constellations

Loading constellations...